Hourly Data Report for July 03, 2021

CAMPBELL RIVER A
BRITISH COLUMBIA
Current Station Operator: NAVCAN

49°57'07.000" N
125°16'23.000" W
108.80 m
1021270
YBL

Download Data

Hourly Data (July 2021)
Hourly Data Report for July 3, 2021
TIME
LST
Temp Definition
°C
Dew Point Definition
°C
Rel Hum Definition
%
Precip. Amount Definition
mm

Wind Dir Definition
10's deg

Wind Spd Definition
km/h
Visibility Definition
km
Stn Press Definition
kPa
Hmdx Definition


Wind Chill Definition


Weather Definition


00:00 13.4 9.7 78 LegendMM 29 10 LegendMM 100.34     LegendNANA
01:00 13.4 9.4 76 LegendMM 28 16 LegendMM 100.35     LegendNANA
02:00 13.0 9.2 77 LegendMM 29 13 LegendMM 100.35     LegendNANA
03:00 11.9 9.3 84 LegendMM 28 6 LegendMM 100.37     LegendNANA
04:00 11.3 9.2 86 LegendMM 31 6 LegendMM 100.39     LegendNANA
05:00 12.1 9.1 82 LegendMM 30 7 LegendMM 100.38     LegendNANA
06:00 13.5 9.4 76 LegendMM 29 16 LegendMM 100.37     LegendNANA
07:00 15.7 9.6 67 LegendMM 31 18 LegendMM 100.36     LegendNANA
08:00 17.2 9.7 61 LegendMM 31 22 LegendMM 100.38     LegendNANA
09:00 18.6 10.0 57 LegendMM 27 15 LegendMM 100.36     LegendNANA
10:00 20.4 10.3 52 LegendMM 34 12 LegendMM 100.34     LegendNANA
11:00 21.4 11.2 51 LegendMM 1 7 LegendMM 100.33     LegendNANA
12:00 23.1 11.1 46 LegendMM 2 13 LegendMM 100.28 25   LegendNANA
13:00 24.2 10.8 42 LegendMM 4 7 LegendMM 100.25 26   LegendNANA
14:00 25.9 10.7 38 LegendMM 35 14 LegendMM 100.22 28   LegendNANA
15:00 25.9 10.5 37 LegendMM 36 10 LegendMM 100.18 27   LegendNANA
16:00 26.6 9.9 34 LegendMM 1 17 LegendMM 100.13 28   LegendNANA
17:00 26.1 9.6 35 LegendMM 34 16 LegendMM 100.09 27   LegendNANA
18:00 24.5 8.7 36 LegendMM 33 15 LegendMM 100.07 25   LegendNANA
19:00 23.0 8.9 40 LegendMM 32 14 LegendMM 100.09     LegendNANA
20:00 19.9 10.1 53 LegendMM 29 8 LegendMM 100.11     LegendNANA
21:00 17.3 8.3 55 LegendMM 30 11 LegendMM 100.16     LegendNANA
22:00 15.7 8.7 63 LegendMM 29 9 LegendMM 100.16     LegendNANA
23:00 14.7 8.7 67 LegendMM 30 14 LegendMM 100.19     LegendNANA

Notes on Data Quality.

Legend

  • E = Estimated
  • M = Missing
  • NA = Not Available*
  • [empty] = Indicates an unobserved value
Date modified: